RYR51WN LFMK-EGSS

Flight info

Callsign RYR51WN
Flight time N/A
Altitude 34000
Route GALDO DCT TOU DCT CHALA DCT TUPAR UN861 DIKRO UM185 TELTU
Aircraft B738/M-SDE3FGIJ1LRWY/SB1

Departure

Time 2026-05-06 09:52
Airport Carcassonne Salvaza Airport (LFMK)

Arrival

Time N/A
Airport London Stansted Airport (EGSS)
Time Latitude Longitude Altitude Speed Heading
2026-05-06 09:20 43.21396 2.30687 419 ft 0 kts 321°
2026-05-06 09:44 43.21401 2.30682 415 ft 3 kts 321°
2026-05-06 09:45 43.21427 2.30680 422 ft 7 kts 15°
2026-05-06 09:45 43.21476 2.30749 422 ft 11 kts 66°
2026-05-06 09:45 43.21490 2.30844 419 ft 9 kts 82°
2026-05-06 09:45 43.21484 2.30931 422 ft 9 kts 98°
2026-05-06 09:46 43.21477 2.31016 422 ft 9 kts 96°
2026-05-06 09:46 43.21470 2.31099 422 ft 9 kts 96°
2026-05-06 09:46 43.21463 2.31179 422 ft 8 kts 96°
2026-05-06 09:46 43.21458 2.31257 422 ft 8 kts 94°
2026-05-06 09:47 43.21453 2.31333 417 ft 8 kts 94°
2026-05-06 09:47 43.21448 2.31407 422 ft 8 kts 96°
2026-05-06 09:47 43.21445 2.31438 420 ft 0 kts 98°
2026-05-06 09:49 43.21442 2.31468 422 ft 9 kts 98°
2026-05-06 09:49 43.21463 2.31497 417 ft 5 kts
2026-05-06 09:49 43.21507 2.31503 422 ft 6 kts
2026-05-06 09:49 43.21521 2.31514 413 ft 4 kts 42°
2026-05-06 09:50 43.21525 2.31559 421 ft 6 kts 96°
2026-05-06 09:50 43.21517 2.31654 421 ft 13 kts 96°
2026-05-06 09:50 43.21522 2.31771 425 ft 12 kts 64°
2026-05-06 09:50 43.21515 2.31797 419 ft 2 kts 189°
2026-05-06 09:51 43.21509 2.31781 412 ft 2 kts 258°
2026-05-06 09:51 43.21513 2.31709 421 ft 24 kts 276°
2026-05-06 09:51 43.21561 2.31116 420 ft 99 kts 276°
2026-05-06 09:51 43.21658 2.29887 458 ft 156 kts 277°
2026-05-06 09:52 43.21825 2.28381 1188 ft 153 kts 282°
2026-05-06 09:52 43.22045 2.27021 1924 ft 144 kts 279°
2026-05-06 09:52 43.22148 2.25726 2685 ft 128 kts 277°
2026-05-06 09:52 43.22225 2.24446 3039 ft 148 kts 275°
2026-05-06 09:53 43.22312 2.22948 3321 ft 169 kts 275°
2026-05-06 09:53 43.22414 2.21292 3801 ft 178 kts 276°
2026-05-06 09:53 43.22529 2.19545 4165 ft 193 kts 275°
2026-05-06 09:53 43.22659 2.17659 4561 ft 202 kts 276°
2026-05-06 09:54 43.22798 2.15705 5008 ft 215 kts 276°
2026-05-06 09:54 43.22957 2.13552 5211 ft 238 kts 276°
2026-05-06 09:54 43.23131 2.11228 5718 ft 248 kts 276°
2026-05-06 09:54 43.23312 2.08858 6457 ft 250 kts 276°
2026-05-06 09:55 43.23495 2.06466 7136 ft 255 kts 276°
2026-05-06 09:55 43.23683 2.04034 7857 ft 258 kts 276°
2026-05-06 09:55 43.23875 2.01569 8593 ft 262 kts 276°
2026-05-06 09:55 43.24069 1.99068 9339 ft 266 kts 276°
2026-05-06 09:56 43.24266 1.96531 10090 ft 269 kts 276°
2026-05-06 09:56 43.24467 1.93925 10513 ft 285 kts 276°
2026-05-06 09:56 43.24684 1.91099 10703 ft 309 kts 276°
2026-05-06 09:56 43.24916 1.88083 11031 ft 325 kts 276°
2026-05-06 09:57 43.25155 1.84970 11650 ft 331 kts 276°
2026-05-06 09:57 43.25393 1.81855 12387 ft 334 kts 276°
2026-05-06 09:57 43.25639 1.78641 13170 ft 337 kts 277°
2026-05-06 09:57 43.26265 1.75572 13845 ft 343 kts 296°
2026-05-06 09:58 43.27631 1.72872 14563 ft 348 kts 313°
2026-05-06 09:58 43.29497 1.70732 15308 ft 352 kts 320°
2026-05-06 09:58 43.31472 1.68707 16008 ft 356 kts 321°
2026-05-06 09:58 43.33489 1.66688 16692 ft 361 kts 321°
2026-05-06 09:59 43.35527 1.64646 17381 ft 365 kts 321°
2026-05-06 09:59 43.37583 1.62569 18090 ft 368 kts 321°
2026-05-06 09:59 43.39648 1.60467 18720 ft 371 kts 321°
2026-05-06 09:59 43.41729 1.58334 19348 ft 373 kts 321°
2026-05-06 10:00 43.43815 1.56186 19992 ft 375 kts 321°
2026-05-06 10:00 43.45882 1.54052 20608 ft 378 kts 321°
2026-05-06 10:00 43.48014 1.51847 21237 ft 380 kts 321°
2026-05-06 10:00 43.50108 1.49677 21826 ft 383 kts 321°
2026-05-06 10:01 43.52273 1.47434 22413 ft 385 kts 321°
2026-05-06 10:01 43.54392 1.45235 22992 ft 388 kts 321°
2026-05-06 10:01 43.56556 1.42988 23573 ft 390 kts 321°
2026-05-06 10:01 43.58731 1.40727 24024 ft 393 kts 320°
2026-05-06 10:02 43.60917 1.38453 24562 ft 391 kts 320°
2026-05-06 10:02 43.63091 1.36191 25046 ft 395 kts 320°
2026-05-06 10:02 43.65306 1.33880 25258 ft 403 kts 320°
2026-05-06 10:02 43.67570 1.31544 25627 ft 407 kts 322°
2026-05-06 10:03 43.70020 1.29529 26056 ft 413 kts 329°
2026-05-06 10:03 43.72607 1.27750 26441 ft 417 kts 330°
2026-05-06 10:03 43.75228 1.25990 26796 ft 421 kts 330°
2026-05-06 10:03 43.77877 1.24216 27149 ft 424 kts 330°
2026-05-06 10:04 43.80538 1.22427 27493 ft 428 kts 330°
2026-05-06 10:04 43.83227 1.20606 27843 ft 431 kts 330°
2026-05-06 10:04 43.85924 1.18768 28197 ft 434 kts 330°
2026-05-06 10:04 43.88649 1.16904 28552 ft 437 kts 329°
2026-05-06 10:05 43.91380 1.15029 28863 ft 440 kts 329°
2026-05-06 10:05 43.94130 1.13137 29153 ft 443 kts 329°
2026-05-06 10:05 43.96902 1.11226 29461 ft 446 kts 329°
2026-05-06 10:05 43.99654 1.09328 29751 ft 449 kts 329°
2026-05-06 10:06 44.02462 1.07389 30034 ft 452 kts 330°
2026-05-06 10:06 44.05285 1.05438 30285 ft 455 kts 330°
2026-05-06 10:06 44.08127 1.03473 30643 ft 454 kts 330°
2026-05-06 10:06 44.10041 1.02149 30905 ft 453 kts 330°
2026-05-06 10:07 44.13771 0.99566 31381 ft 453 kts 330°
2026-05-06 10:07 44.16595 0.97607 31703 ft 453 kts 330°
2026-05-06 10:07 44.18463 0.96309 31922 ft 453 kts 330°
2026-05-06 10:07 44.21279 0.94352 32291 ft 452 kts 330°
2026-05-06 10:08 44.24084 0.92399 32655 ft 451 kts 330°
2026-05-06 10:08 44.26894 0.90441 32973 ft 451 kts 330°
2026-05-06 10:08 44.29697 0.88486 33304 ft 450 kts 330°
2026-05-06 10:08 44.32496 0.86532 33664 ft 449 kts 330°
2026-05-06 10:09 44.35291 0.84578 33979 ft 449 kts 330°
2026-05-06 10:09 44.38088 0.82621 34217 ft 449 kts 330°
2026-05-06 10:09 44.40885 0.80661 34437 ft 450 kts 330°
2026-05-06 10:09 44.43689 0.78694 34679 ft 450 kts 330°
2026-05-06 10:10 44.46488 0.76729 34915 ft 450 kts 330°
2026-05-06 10:10 44.49286 0.74763 35135 ft 451 kts 330°
2026-05-06 10:10 44.52092 0.72789 35350 ft 451 kts 330°
2026-05-06 10:10 44.54894 0.70815 35588 ft 451 kts 330°
2026-05-06 10:11 44.57662 0.68864 35792 ft 452 kts 330°
2026-05-06 10:11 44.60471 0.66881 35990 ft 452 kts 330°
2026-05-06 10:11 44.63281 0.64895 36217 ft 452 kts 330°
2026-05-06 10:11 44.66100 0.62901 36437 ft 453 kts 330°
2026-05-06 10:12 44.68914 0.60909 36633 ft 453 kts 330°
2026-05-06 10:12 44.71728 0.58913 36820 ft 454 kts 330°
2026-05-06 10:12 44.74556 0.56907 37018 ft 454 kts 330°
2026-05-06 10:12 44.77378 0.54901 37252 ft 454 kts 330°
2026-05-06 10:13 44.80198 0.52896 37456 ft 455 kts 330°
2026-05-06 10:13 44.83017 0.50888 37630 ft 455 kts 330°
2026-05-06 10:13 44.85851 0.48868 37801 ft 456 kts 330°
2026-05-06 10:13 44.88679 0.46850 37910 ft 457 kts 330°
2026-05-06 10:14 44.94375 0.42778 37912 ft 458 kts 330°
2026-05-06 10:14 45.00055 0.38709 37911 ft 457 kts 330°
2026-05-06 10:15 45.05686 0.34666 37896 ft 456 kts 330°
2026-05-06 10:15 45.11329 0.30606 37903 ft 454 kts 330°
2026-05-06 10:16 45.16950 0.26551 37896 ft 453 kts 331°
2026-05-06 10:16 45.22574 0.22485 37900 ft 453 kts 331°
2026-05-06 10:17 45.28194 0.18412 37905 ft 454 kts 331°
2026-05-06 10:17 45.33821 0.14327 37904 ft 454 kts 331°
2026-05-06 10:18 45.39458 0.10236 37893 ft 455 kts 331°
2026-05-06 10:18 45.45100 0.06149 37900 ft 456 kts 331°
2026-05-06 10:19 45.50756 0.02043 37897 ft 456 kts 331°
2026-05-06 10:19 45.56419 -0.02080 37906 ft 457 kts 331°
2026-05-06 10:20 45.62083 -0.06215 37903 ft 457 kts 331°
2026-05-06 10:20 45.67713 -0.10334 37911 ft 457 kts 331°
2026-05-06 10:21 45.73389 -0.14497 37908 ft 458 kts 331°
2026-05-06 10:21 45.79056 -0.18662 37915 ft 458 kts 331°
2026-05-06 10:22 45.84723 -0.22837 37908 ft 458 kts 331°
2026-05-06 10:22 45.90398 -0.27027 37908 ft 459 kts 331°
2026-05-06 10:23 45.96086 -0.31237 37893 ft 459 kts 331°
2026-05-06 10:23 46.01759 -0.35445 37900 ft 458 kts 331°
2026-05-06 10:24 46.07384 -0.39628 37899 ft 458 kts 331°
2026-05-06 10:24 46.13039 -0.43842 37901 ft 457 kts 331°
2026-05-06 10:25 46.18680 -0.48057 37905 ft 456 kts 331°
2026-05-06 10:25 46.24319 -0.52279 37904 ft 455 kts 331°
2026-05-06 10:26 46.29943 -0.56500 37910 ft 455 kts 331°
2026-05-06 10:26 46.35533 -0.60706 37912 ft 455 kts 331°
2026-05-06 10:27 46.41177 -0.64876 37904 ft 457 kts 336°
2026-05-06 10:27 46.47315 -0.67224 37920 ft 459 kts 352°
2026-05-06 10:28 46.53688 -0.68237 37914 ft 461 kts 353°
2026-05-06 10:28 46.60070 -0.69199 37923 ft 462 kts 353°
2026-05-06 10:29 46.66479 -0.70233 37921 ft 463 kts 352°
2026-05-06 10:29 46.72888 -0.71311 37924 ft 464 kts 352°
2026-05-06 10:30 46.79270 -0.72396 37928 ft 465 kts 352°
2026-05-06 10:30 46.85715 -0.73492 37915 ft 468 kts 352°
2026-05-06 10:31 46.92173 -0.74590 37931 ft 467 kts 352°
2026-05-06 10:31 46.98635 -0.75691 37931 ft 466 kts 352°
2026-05-06 10:32 47.05079 -0.76792 37932 ft 465 kts 352°
2026-05-06 10:32 47.11505 -0.77892 37932 ft 464 kts 352°
2026-05-06 10:33 47.17870 -0.78985 37938 ft 462 kts 352°
2026-05-06 10:33 47.24258 -0.80084 37937 ft 461 kts 352°
2026-05-06 10:34 47.30636 -0.81184 37946 ft 460 kts 352°
2026-05-06 10:34 47.37001 -0.82285 37937 ft 460 kts 352°
2026-05-06 10:35 47.43366 -0.83389 37931 ft 461 kts 352°
2026-05-06 10:35 47.49731 -0.84494 37941 ft 460 kts 353°
2026-05-06 10:36 47.56097 -0.85563 37940 ft 460 kts 354°
2026-05-06 10:36 47.62474 -0.86349 37942 ft 460 kts 355°
2026-05-06 10:37 47.68830 -0.87064 37944 ft 462 kts 355°
2026-05-06 10:37 47.75259 -0.87819 37953 ft 464 kts 355°
2026-05-06 10:38 47.81707 -0.88602 37946 ft 465 kts 355°
2026-05-06 10:38 47.88172 -0.89398 37948 ft 467 kts 355°
2026-05-06 10:39 47.94657 -0.90199 37940 ft 467 kts 355°
2026-05-06 10:39 48.01124 -0.90998 37935 ft 466 kts 355°
2026-05-06 10:40 48.07566 -0.91796 37942 ft 464 kts 355°
2026-05-06 10:40 48.14002 -0.92595 37943 ft 464 kts 355°
2026-05-06 10:41 48.20395 -0.93391 37952 ft 463 kts 355°
2026-05-06 10:41 48.26815 -0.94192 37953 ft 463 kts 355°
2026-05-06 10:42 48.33241 -0.94997 37960 ft 463 kts 355°
2026-05-06 10:42 48.39655 -0.95801 37962 ft 463 kts 355°
2026-05-06 10:43 48.46076 -0.96608 37959 ft 463 kts 355°
2026-05-06 10:44 48.55683 -0.97820 37959 ft 464 kts 355°
2026-05-06 10:44 48.62118 -0.98634 37966 ft 464 kts 355°
2026-05-06 10:45 48.68580 -0.99455 37963 ft 465 kts 355°
2026-05-06 10:45 48.75032 -1.00275 37970 ft 466 kts 355°
2026-05-06 10:46 48.81498 -1.01100 37958 ft 466 kts 355°
2026-05-06 10:46 48.87919 -1.01921 37972 ft 466 kts 355°
2026-05-06 10:47 48.94387 -1.02750 37962 ft 467 kts 355°
2026-05-06 10:47 49.00881 -1.03584 37969 ft 468 kts 355°
2026-05-06 10:48 49.07366 -1.04420 37968 ft 468 kts 355°
2026-05-06 10:48 49.13855 -1.05259 37979 ft 468 kts 355°
2026-05-06 10:49 49.20341 -1.06099 37967 ft 468 kts 355°
2026-05-06 10:49 49.26822 -1.06940 37983 ft 467 kts 355°
2026-05-06 10:50 49.33296 -1.07783 37971 ft 467 kts 355°
2026-05-06 10:50 49.39776 -1.08630 38001 ft 467 kts 355°
2026-05-06 10:51 49.46264 -1.09479 37980 ft 467 kts 355°
2026-05-06 10:51 49.52736 -1.10328 37989 ft 467 kts 354°
2026-05-06 10:51 49.55933 -1.10369 37972 ft 466 kts
2026-05-06 10:52 49.59090 -1.09251 38003 ft 465 kts 20°
2026-05-06 10:52 49.62009 -1.07120 37989 ft 463 kts 34°
2026-05-06 10:52 49.64579 -1.04141 38009 ft 462 kts 39°
2026-05-06 10:52 49.67072 -1.01013 37887 ft 464 kts 39°
2026-05-06 10:53 49.69620 -0.97877 37324 ft 469 kts 39°
2026-05-06 10:53 49.72199 -0.94826 36750 ft 466 kts 35°
2026-05-06 10:53 49.75018 -0.92347 36152 ft 467 kts 24°
2026-05-06 10:53 49.78054 -0.90611 35504 ft 468 kts 16°
2026-05-06 10:54 49.81258 -0.89642 34815 ft 470 kts
2026-05-06 10:54 49.84513 -0.89206 34247 ft 469 kts
2026-05-06 10:54 49.87759 -0.88846 33724 ft 466 kts
2026-05-06 10:54 49.90984 -0.88472 33187 ft 462 kts
2026-05-06 10:55 49.93103 -0.88201 32863 ft 459 kts
2026-05-06 10:55 49.96263 -0.87767 32408 ft 454 kts
2026-05-06 10:55 49.99400 -0.87319 31929 ft 450 kts
2026-05-06 10:55 50.02506 -0.86872 31466 ft 446 kts
2026-05-06 10:56 50.06582 -0.86289 30856 ft 442 kts
2026-05-06 10:56 50.08641 -0.85995 30558 ft 439 kts
2026-05-06 10:56 50.11675 -0.85563 30118 ft 436 kts
2026-05-06 10:56 50.14686 -0.85133 29614 ft 433 kts
2026-05-06 10:57 50.17673 -0.84706 29148 ft 428 kts
2026-05-06 10:57 50.20616 -0.84284 28698 ft 423 kts
2026-05-06 10:57 50.23505 -0.83869 28244 ft 419 kts
2026-05-06 10:57 50.26393 -0.83454 27804 ft 415 kts
2026-05-06 10:58 50.29289 -0.83038 27343 ft 411 kts
2026-05-06 10:58 50.32096 -0.82634 26899 ft 408 kts
2026-05-06 10:58 50.34913 -0.82228 26453 ft 405 kts
2026-05-06 10:58 50.37701 -0.81825 26022 ft 401 kts
2026-05-06 10:59 50.40473 -0.81424 25588 ft 399 kts
2026-05-06 10:59 50.43231 -0.81025 25157 ft 396 kts
2026-05-06 10:59 50.45961 -0.80629 24730 ft 393 kts
2026-05-06 10:59 50.48681 -0.80234 24307 ft 391 kts
2026-05-06 11:00 50.51390 -0.79840 23878 ft 389 kts
2026-05-06 11:00 50.54077 -0.79449 23426 ft 387 kts
2026-05-06 11:00 50.56757 -0.79059 22932 ft 385 kts
2026-05-06 11:00 50.59417 -0.78672 22485 ft 382 kts
2026-05-06 11:01 50.62046 -0.78288 22044 ft 378 kts
2026-05-06 11:01 50.64662 -0.77906 21612 ft 375 kts
2026-05-06 11:01 50.67252 -0.77527 21188 ft 372 kts
2026-05-06 11:01 50.69819 -0.77151 20778 ft 369 kts
2026-05-06 11:02 50.72368 -0.76776 20361 ft 366 kts
2026-05-06 11:02 50.74895 -0.76405 19962 ft 363 kts
2026-05-06 11:02 50.77399 -0.76039 19564 ft 361 kts
2026-05-06 11:02 50.79887 -0.75655 19160 ft 358 kts
2026-05-06 11:03 50.82273 -0.74819 18792 ft 354 kts 19°
2026-05-06 11:03 50.84558 -0.73434 18453 ft 350 kts 22°
2026-05-06 11:03 50.86804 -0.71969 18082 ft 348 kts 23°
2026-05-06 11:03 50.89034 -0.70494 17687 ft 345 kts 23°
2026-05-06 11:04 50.91239 -0.69038 17333 ft 342 kts 23°
2026-05-06 11:04 50.93435 -0.67596 16978 ft 340 kts 23°
2026-05-06 11:04 50.95606 -0.66178 16637 ft 337 kts 23°
2026-05-06 11:04 50.97772 -0.64768 16302 ft 334 kts 22°
2026-05-06 11:05 50.99917 -0.63375 15971 ft 332 kts 22°
2026-05-06 11:05 51.02045 -0.61994 15643 ft 330 kts 22°
2026-05-06 11:05 51.04161 -0.60621 15327 ft 327 kts 22°
2026-05-06 11:05 51.06263 -0.59255 15004 ft 325 kts 22°
2026-05-06 11:06 51.08353 -0.57897 14682 ft 324 kts 22°
2026-05-06 11:06 51.10431 -0.56545 14364 ft 322 kts 22°
2026-05-06 11:06 51.12500 -0.55198 14046 ft 321 kts 22°
2026-05-06 11:06 51.14562 -0.53854 13722 ft 319 kts 22°
2026-05-06 11:07 51.16610 -0.52517 13367 ft 318 kts 22°
2026-05-06 11:07 51.18653 -0.51183 13027 ft 316 kts 22°
2026-05-06 11:07 51.20653 -0.49876 12714 ft 314 kts 22°
2026-05-06 11:07 51.22669 -0.48556 12397 ft 312 kts 22°
2026-05-06 11:08 51.24673 -0.47244 12089 ft 311 kts 22°
2026-05-06 11:08 51.26674 -0.45933 11774 ft 310 kts 22°
2026-05-06 11:08 51.28670 -0.44624 11465 ft 309 kts 22°
2026-05-06 11:08 51.30648 -0.43324 11160 ft 308 kts 22°
2026-05-06 11:09 51.32629 -0.42022 10856 ft 306 kts 22°
2026-05-06 11:09 51.34594 -0.40728 10545 ft 303 kts 22°
2026-05-06 11:09 51.36530 -0.39454 10258 ft 299 kts 22°
2026-05-06 11:09 51.38452 -0.38187 9958 ft 297 kts 22°
2026-05-06 11:10 51.40327 -0.36949 9941 ft 283 kts 22°
2026-05-06 11:10 51.42089 -0.35786 9899 ft 272 kts 22°
2026-05-06 11:10 51.43821 -0.34537 9571 ft 272 kts 30°
2026-05-06 11:10 51.45382 -0.32831 9094 ft 278 kts 36°
2026-05-06 11:11 51.46888 -0.30958 8761 ft 269 kts 38°
2026-05-06 11:11 51.48390 -0.29054 8171 ft 272 kts 38°
2026-05-06 11:11 51.49841 -0.27223 7830 ft 267 kts 37°